Theta_e
298 299 299 298 297 297 297 299 300 298 296 296 296 296 299 299 299 298 299 301 302 302 303 303 302 302 302 301 301 301 301 301 301 301 301 301 300 300 300 301 300 300 300 299
298 299 297 297 297 298 299 300 300 298 296 297 296 298 300 299 297 299 301 300 301 302 303 303 302 302 302 301 301 301 301 301 301 301 300 299 299 300 300 301 301 300 299 299
299 297 297 297 298 300 298 300 299 299 296 295 294 300 302 300 297 299 300 300 300 300 301 303 302 302 302 301 301 301 301 301 301 300 300 299 299 300 301 301 300 299 299 301
296 296 297 298 298 297 301 297 297 298 299 302 295 304 302 300 298 297 300 301 302 301 301 303 302 302 302 302 302 301 301 301 301 300 299 299 300 300 300 300 299 299 300 300
298 296 298 299 298 296 298 296 297 297 297 298 298 300 302 299 303 302 300 302 302 302 303 303 303 302 302 302 302 301 301 301 300 300 299 299 300 300 300 299 299 300 300 300
295 295 296 296 295 296 295 297 297 296 298 301 298 299 303 303 304 301 301 302 302 303 303 303 303 302 302 302 301 301 301 301 300 299 299 299 299 300 299 298 299 300 300 299
297 296 294 294 296 296 297 299 303 304 302 306 296 298 303 301 301 300 301 301 302 303 303 303 303 303 302 302 301 301 301 301 300 299 299 299 299 299 298 299 299 299 299 297
298 300 295 293 295 297 296 298 302 302 303 302 296 300 304 299 299 300 301 302 303 304 304 304 303 302 302 301 301 300 300 300 299 299 299 299 299 298 299 299 298 298 297 296
295 298 293 293 293 295 296 297 295 296 290 297 299 299 300 300 298 299 301 302 304 303 303 304 303 302 302 301 301 300 300 299 299 299 299 299 298 298 299 298 297 296 296 295
296 297 294 294 293 293 295 294 298 295 299 298 300 300 304 305 305 302 300 301 303 304 303 303 302 302 302 301 301 300 299 299 299 298 299 299 298 299 298 297 296 296 296 295
288 295 294 293 292 294 294 294 292 293 297 300 299 302 297 300 302 302 299 302 302 304 304 303 303 302 301 301 301 299 298 299 298 298 299 298 298 299 298 297 296 296 295 294
293 292 294 294 292 291 293 295 295 299 297 293 297 299 298 297 297 298 299 302 304 304 305 304 304 302 301 300 300 298 299 299 298 298 299 297 299 298 297 297 296 296 295 294
292 292 291 295 292 290 289 293 295 293 293 293 299 301 298 296 296 300 299 302 303 303 302 302 301 301 300 299 299 299 299 298 298 298 298 298 298 297 297 297 296 296 295 294
295 291 296 302 300 291 290 289 293 292 292 296 298 301 301 302 302 300 301 303 302 301 301 301 301 300 300 300 300 299 299 298 298 298 297 298 298 297 297 296 296 295 295 294
291 291 289 289 292 289 290 288 292 294 297 298 303 298 300 300 301 301 300 299 300 301 303 303 301 301 301 300 300 299 298 298 298 298 297 298 297 297 297 297 296 295 295 293
289 290 286 288 292 292 293 293 291 294 296 296 297 297 299 300 300 299 299 299 301 302 302 301 301 301 301 301 300 299 298 298 298 297 297 298 297 297 297 297 296 295 294 293
290 288 289 294 292 292 295 295 293 294 294 297 297 300 301 301 300 299 300 300 300 301 303 302 301 302 302 301 300 299 298 298 298 297 297 297 297 297 297 297 295 295 294 294
292 291 294 294 291 300 302 294 292 296 298 296 298 300 300 300 300 300 300 301 301 304 304 304 304 304 303 302 301 300 299 298 298 296 297 297 297 297 297 296 296 294 294 294
292 295 295 299 290 297 300 292 294 294 299 296 296 297 298 298 298 301 304 303 305 306 304 304 304 303 302 301 301 300 299 298 298 296 297 297 297 297 297 296 295 294 292 295
293 295 301 294 302 301 303 297 294 294 303 299 298 299 298 297 299 299 304 304 304 305 304 304 303 302 301 300 300 299 299 298 297 296 296 297 297 297 297 296 295 291 290 294
294 293 298 301 301 296 297 294 295 303 308 302 302 301 296 296 302 305 304 304 304 304 303 303 302 301 300 299 299 299 298 298 297 296 296 296 297 297 297 296 295 290 291 293
296 296 296 298 300 302 295 293 300 304 304 306 306 303 300 303 302 301 302 303 303 302 302 301 301 301 300 299 298 298 298 297 297 296 295 294 296 297 296 296 295 289 290 291
300 298 298 298 300 298 298 301 302 305 306 305 304 303 302 301 302 303 308 308 303 303 302 301 300 300 300 298 298 298 298 297 297 297 295 294 294 296 296 296 295 288 289 291
292 295 295 296 298 295 298 300 303 302 302 302 303 304 304 304 306 309 310 309 306 304 305 303 301 299 299 299 298 298 297 296 296 296 296 294 293 296 296 296 296 289 289 290
300 294 297 293 296 297 297 298 299 301 301 302 302 303 305 304 304 306 309 307 305 305 305 304 303 302 301 300 298 299 298 296 296 296 296 294 293 294 296 296 296 290 289 289
294 296 298 302 301 301 304 305 307 299 300 304 303 303 305 303 303 305 308 305 305 304 304 304 303 302 301 301 300 300 298 297 296 295 296 295 293 292 294 296 296 292 290 288
Wind_Speed
5 5 2 1 0 2 4 3 3 2 2 3 5 9 20 16 22 28 34 35 36 36 27 23 21 19 16 12 11 13 16 19 24 28 28 29 28 27 27 29 31 33 34 35
4 2 3 2 1 2 2 2 3 3 1 1 4 16 21 10 12 26 31 32 36 39 36 30 25 20 18 15 14 15 18 21 26 29 29 29 31 32 32 32 33 35 36 36
4 4 3 2 2 2 1 1 0 2 6 0 7 8 7 1 5 11 17 18 19 24 33 37 32 23 20 18 17 17 20 23 27 27 28 28 30 32 34 36 37 37 37 37
5 3 3 2 2 1 2 2 2 3 5 3 4 5 8 4 9 6 13 14 15 16 19 26 29 27 21 17 18 19 21 24 26 26 27 29 32 36 37 39 41 41 39 37
3 5 3 2 2 1 2 2 3 1 2 3 2 1 9 4 6 5 5 10 8 7 11 17 22 22 19 17 18 19 22 25 23 24 26 29 32 34 37 40 42 41 40 38
3 1 1 3 2 3 6 3 3 3 2 2 1 3 6 4 3 5 4 4 2 7 11 15 18 21 19 18 18 19 22 22 22 24 26 29 32 35 38 39 41 41 42 40
2 2 1 2 4 2 1 3 3 5 3 4 0 1 11 5 5 2 3 2 4 8 12 14 18 19 17 18 17 20 22 20 22 24 26 28 31 34 37 38 40 41 41 39
5 5 4 1 1 3 3 2 4 6 2 3 3 6 6 6 2 5 13 8 4 8 13 15 17 18 17 16 16 20 21 20 22 25 27 28 30 33 35 36 37 38 39 39
5 2 0 2 2 1 4 2 4 6 2 3 3 7 11 4 6 14 19 12 18 15 13 17 18 20 18 18 18 21 21 22 23 25 27 28 30 32 34 35 35 36 37 37
4 3 2 1 1 4 1 4 3 2 1 4 4 5 7 4 2 2 3 18 18 16 17 16 18 22 22 21 22 25 25 22 23 24 26 28 30 31 32 33 34 35 36 36
4 3 2 3 6 8 3 1 4 3 4 5 2 6 7 6 4 5 7 7 9 9 14 17 19 23 26 26 26 28 25 23 22 24 25 26 28 30 31 32 33 34 35 35
7 5 4 7 3 3 3 5 6 4 6 3 2 7 4 7 9 9 17 14 11 10 11 14 16 19 25 27 29 28 21 21 22 22 23 25 26 28 30 31 32 33 33 33
7 2 2 6 3 4 4 5 2 5 2 7 5 5 3 6 7 12 15 14 18 23 26 25 26 25 24 26 23 18 19 19 19 20 21 23 25 27 29 30 31 31 33 33
7 3 7 8 6 5 5 6 6 6 3 4 10 8 11 19 18 13 24 28 26 25 32 27 24 21 17 17 16 17 17 18 18 18 19 21 23 25 27 29 29 29 31 35
5 6 3 3 2 3 5 5 11 13 15 10 8 15 16 21 19 14 19 20 32 31 27 25 22 17 16 16 15 17 16 15 16 17 18 18 21 22 24 25 26 29 31 34
2 4 3 4 1 3 4 9 11 16 10 18 19 27 19 33 32 34 32 23 26 31 31 29 22 16 15 15 15 15 14 13 14 15 16 17 18 20 22 25 26 28 31 34
8 6 4 6 2 4 8 17 16 10 8 13 16 28 18 19 15 20 21 20 30 38 32 22 12 10 11 12 13 13 13 12 12 13 14 15 15 17 20 23 25 27 30 32
8 7 3 2 1 7 7 2 6 20 17 22 20 22 19 21 14 24 34 39 38 25 13 8 7 7 7 9 11 13 13 12 10 11 12 13 13 15 18 21 23 24 26 31
4 8 4 4 6 9 12 6 9 9 11 21 23 26 32 18 14 33 9 6 7 8 9 8 8 9 9 9 10 12 12 12 10 9 9 10 10 12 15 17 18 20 23 27
6 4 12 4 6 12 6 6 12 6 16 15 28 25 16 11 2 5 3 1 2 5 8 9 11 11 9 10 11 12 13 13 11 9 8 8 8 9 11 13 13 18 20 24
6 3 18 16 8 8 8 6 14 7 7 19 26 26 16 7 12 7 1 3 4 6 10 13 14 12 10 14 13 13 14 14 12 11 8 7 7 6 8 9 9 14 16 20
14 13 7 8 8 18 15 9 10 8 8 8 8 17 22 24 9 10 7 9 11 14 15 17 18 17 17 18 17 17 17 13 15 13 10 7 7 5 5 5 7 10 13 19
7 9 9 14 10 8 36 25 45 18 17 10 6 8 14 13 15 13 20 26 27 21 18 20 23 21 23 25 23 23 19 18 17 16 14 10 9 5 5 4 4 8 11 16
4 11 4 4 13 9 31 43 41 32 38 19 13 12 14 23 25 23 29 29 30 25 19 19 20 25 26 30 29 28 24 21 21 21 18 14 11 8 7 4 3 5 8 14
11 13 16 4 7 9 19 33 38 43 38 31 26 24 26 30 33 29 32 28 24 22 19 23 22 22 22 25 30 28 28 27 25 25 23 19 14 12 9 6 6 3 6 11
5 9 10 11 24 18 25 40 51 45 48 46 41 39 40 44 46 38 35 30 24 25 22 25 24 26 23 23 23 24 27 29 29 30 28 24 19 15 13 10 8 6 3 5
Wind_Direction
23 70 181 144 175 112 123 145 219 219 162 306 232 271 275 254 239 247 248 243 240 237 233 223 221 221 229 246 273 296 314 322 324 324 322 322 323 324 325 324 322 321 319 319
36 135 171 126 115 97 64 145 254 270 102 3 342 284 270 256 232 236 250 250 249 242 235 224 220 223 234 248 268 286 306 316 321 322 322 321 322 324 324 324 323 321 320 320
153 155 164 169 118 154 67 181 93 267 319 123 317 281 299 305 255 251 251 259 258 247 236 225 220 228 238 248 266 283 299 310 317 317 319 317 317 321 324 324 323 323 322 322
96 171 167 139 146 185 207 98 77 9 18 276 2 285 307 331 294 253 256 250 257 247 231 215 219 226 229 247 265 279 296 306 312 316 316 318 321 322 324 323 324 325 325 323
171 150 167 161 98 342 133 84 84 78 88 345 16 82 271 337 316 313 272 244 251 221 195 194 203 206 226 250 264 279 294 303 306 313 314 317 318 319 322 324 324 325 324 322
104 120 47 109 94 71 145 106 77 70 96 6 261 153 280 243 237 323 350 283 249 186 181 192 201 215 233 252 264 281 294 301 305 311 313 316 318 321 323 325 325 326 325 323
43 92 100 121 106 58 146 76 327 343 11 225 349 357 250 300 271 232 330 1 216 203 209 210 217 224 241 255 270 290 298 298 304 309 313 318 321 323 324 327 327 327 327 328
152 303 169 330 118 160 155 157 159 223 234 282 21 234 250 218 289 273 238 244 245 226 225 227 230 233 244 255 273 298 299 299 305 310 315 320 322 324 326 328 327 328 329 328
131 260 84 36 146 148 167 158 172 108 77 43 261 285 289 249 259 252 253 241 245 239 237 234 236 234 246 257 277 304 302 298 305 312 318 322 325 328 329 329 331 330 329 325
217 68 342 89 127 22 146 150 91 6 206 286 284 279 246 327 264 342 262 240 254 245 245 242 243 243 253 264 280 305 302 296 305 312 319 323 328 330 331 332 332 331 331 330
128 99 299 31 212 179 148 180 51 115 150 190 241 255 216 228 248 280 277 291 278 250 254 261 262 258 260 269 283 299 296 295 305 314 320 324 329 331 334 335 336 337 336 334
198 141 172 217 319 348 317 202 164 138 225 221 158 263 223 236 254 262 273 275 275 279 292 286 280 272 270 276 286 290 281 292 304 313 321 327 332 334 337 339 342 341 340 338
192 248 50 340 347 355 215 206 169 83 70 199 157 252 211 245 250 256 261 268 283 292 296 291 285 278 280 282 281 273 281 290 302 313 321 330 335 338 342 346 347 345 344 346
147 147 175 195 200 130 189 196 174 140 138 192 228 268 288 280 276 264 266 279 287 291 298 294 289 288 277 277 274 272 279 292 306 313 324 333 339 342 348 353 351 352 352 354
140 210 167 278 127 125 195 166 185 199 213 200 244 228 239 253 265 283 289 290 294 294 293 292 293 288 286 277 267 274 277 294 305 313 325 335 341 347 354 357 359 1 2 5
170 223 121 298 185 206 274 231 195 215 235 255 264 272 256 269 282 277 280 281 281 287 293 295 283 271 266 266 256 260 276 292 302 311 325 336 343 352 2 1 4 7 9 10
157 142 118 254 117 126 292 222 196 202 198 215 232 247 275 271 255 267 278 281 284 293 300 297 269 255 254 254 256 260 271 285 299 308 324 333 341 358 6 6 10 14 12 13
152 146 173 180 102 224 248 118 190 214 224 218 249 258 254 253 285 289 286 285 286 286 280 248 227 227 242 247 250 259 267 279 287 303 319 327 340 0 12 10 17 24 21 20
193 166 176 177 211 302 283 185 182 177 251 218 226 244 251 264 301 292 291 269 269 232 223 212 208 216 221 239 257 258 260 270 280 293 307 319 333 4 16 16 28 31 19 22
190 325 208 144 204 213 252 187 160 133 273 189 213 236 240 147 194 260 227 283 301 236 223 217 219 221 227 241 254 262 262 265 272 281 295 310 328 5 20 18 29 25 16 25
172 201 211 211 226 273 232 152 161 145 255 202 211 228 161 183 212 188 327 335 318 281 261 245 237 236 242 249 255 264 263 267 266 271 277 296 312 355 11 4 11 15 10 22
174 171 187 209 217 247 152 128 192 209 172 157 199 224 216 227 205 242 292 317 307 300 287 272 261 252 258 255 257 267 269 261 262 261 261 272 292 319 340 340 346 359 4 15
193 194 179 196 207 206 181 206 214 220 220 215 205 213 225 222 233 261 298 306 308 304 293 283 274 263 262 259 259 265 275 261 259 256 254 255 274 275 297 310 328 356 7 20
247 201 195 139 236 237 210 221 230 234 239 225 207 193 238 251 261 272 291 297 298 300 299 297 285 266 262 259 259 265 263 259 254 252 247 243 256 256 267 278 277 350 13 29
203 160 207 239 262 243 249 235 239 240 236 239 236 231 240 254 262 268 275 272 278 286 297 295 290 283 268 265 260 260 256 255 253 247 244 240 242 245 248 253 237 275 15 31
179 189 193 217 224 218 232 235 238 235 240 244 245 254 259 259 256 260 269 278 289 288 295 294 285 286 285 271 267 258 250 249 251 245 241 240 236 238 237 238 234 234 333 15